Weather History for Dayton, OH

Change the Weather History Date:

Friday, November 2, 2012

  Actual Average Record
Temperature  
Mean Temperature 42 °F 48 °F  
Max Temperature 49 °F 58 °F 77 °F (1961)
Min Temperature 34 °F 39 °F 20 °F (1954)
Degree Days  
Heating Degree Days 23 17  
Month to date heating degree days 44 33  
Since 1 July heating degree days 544 480  
Cooling Degree Days 0 0  
Month to date cooling degree days 0 0  
Year to date cooling degree days 1264 891  
Moisture  
Dew Point 29 °F    
Average Humidity 62    
Maximum Humidity 70    
Minimum Humidity 53    
Precipitation  
Precipitation 0.00 in 0.11 in 2.20 in (1928)
Month to date precipitation T 0.22  
Year to date precipitation 28.03 34.76  
Snow  
Snow 0.00 in 0.00 in 6.50 in (1966)
Month to date snowfall 0.0 0.0  
Since 1 July snowfall 0.7 0.4  
Since 1 September snowfall 0.7 0.4  
Snow Depth 0.00 in    
Sea Level Pressure  
Sea Level Pressure 29.99 in    
Wind  
Wind Speed 8 mph (NW)    
Max Wind Speed 20 mph    
Max Gust Speed 23 mph    
Visibility 10 miles    
Events      
T = Trace of Precipitation, MM = Missing Value Source: NWS Daily Summary

Daily Weather History Graph

Daily Weather History Graph

Search for Another Location

Airport:

Trip Planner

Search our weather history database for the weather conditions in past years. The results will help you decide how hot, cold, wet, or windy it might be!

Date:

Astronomy

Nov. 02, 2012 Rise Set
Actual Time 8:07 AM EDT 6:32 PM EDT
Civil Twilight 7:39 AM EDT 7:00 PM EDT
Nautical Twilight 7:07 AM EDT 7:32 PM EDT
Astronomical Twilight 6:35 AM EDT 8:04 PM EDT
Moon 9:19 PM EDT (11/2) 11:27 AM EDT (11/2)
Length of Visible Light 11h 21m
Length of Day
10h 25m
Waning Gibbous, 87% of the Moon is Illuminated
Nov 2
Waning Gibbous
Nov 6
Last Quarter
Nov 13
New
Nov 20
First Quarter
Nov 28
Full

Hourly Weather History & Observations

Time (EDT) Temp. Windchill Dew Point Humidity Pressure Visibility Wind Dir Wind Speed Gust Speed Precip Events Conditions
12:56 AM 42.1 °F 37.1 °F 30.0 °F 62% 29.86 in 10.0 mi NW 8.1 mph - N/A   Mostly Cloudy
1:56 AM 41.0 °F 38.0 °F 30.0 °F 65% 29.86 in 10.0 mi NNW 4.6 mph - N/A   Overcast
2:56 AM 39.9 °F 35.1 °F 28.0 °F 63% 29.86 in 10.0 mi North 6.9 mph - N/A   Mostly Cloudy
3:56 AM 39.0 °F 35.7 °F 27.0 °F 62% 29.86 in 10.0 mi NNW 4.6 mph - N/A   Mostly Cloudy
4:56 AM 37.9 °F 35.5 °F 28.0 °F 68% 29.87 in 10.0 mi NNW 3.5 mph - N/A   Overcast
5:56 AM 37.9 °F 34.4 °F 28.0 °F 68% 29.89 in 10.0 mi NW 4.6 mph - N/A   Overcast
6:56 AM 36.0 °F 32.1 °F 27.0 °F 70% 29.91 in 10.0 mi NW 4.6 mph - N/A   Scattered Clouds
7:56 AM 36.0 °F 31.1 °F 27.0 °F 70% 29.93 in 10.0 mi WNW 5.8 mph - N/A   Scattered Clouds
8:56 AM 37.0 °F 32.4 °F 28.0 °F 70% 29.95 in 10.0 mi NW 5.8 mph - N/A   Clear
9:56 AM 41.0 °F 36.4 °F 30.9 °F 67% 29.98 in 10.0 mi NW 6.9 mph - N/A   Partly Cloudy
10:56 AM 44.1 °F 38.1 °F 30.0 °F 58% 30.00 in 10.0 mi NNW 11.5 mph - N/A   Partly Cloudy
11:56 AM 44.1 °F 38.1 °F 28.0 °F 53% 30.01 in 10.0 mi NNW 11.5 mph - N/A   Partly Cloudy
12:56 PM 45.0 °F 38.9 °F 28.9 °F 53% 30.02 in 10.0 mi NNW 12.7 mph 20.7 mph N/A   Scattered Clouds
1:56 PM 46.9 °F - 30.0 °F 52% 30.02 in 10.0 mi NNW 13.8 mph 20.7 mph N/A   Mostly Cloudy
2:56 PM 46.0 °F 39.9 °F 30.0 °F 54% 30.02 in 10.0 mi NNW 13.8 mph - N/A   Mostly Cloudy
3:56 PM 46.9 °F - 30.9 °F 54% 30.03 in 10.0 mi NW 12.7 mph - N/A   Mostly Cloudy
4:56 PM 46.0 °F 39.9 °F 30.9 °F 56% 30.05 in 10.0 mi WNW 13.8 mph 19.6 mph N/A   Mostly Cloudy
5:56 PM 45.0 °F 39.7 °F 30.0 °F 56% 30.06 in 10.0 mi NW 10.4 mph - N/A   Mostly Cloudy
6:56 PM 42.1 °F 36.6 °F 30.0 °F 62% 30.07 in 10.0 mi WNW 9.2 mph - N/A   Scattered Clouds
7:56 PM 41.0 °F 37.1 °F 30.0 °F 65% 30.09 in 10.0 mi WNW 5.8 mph - N/A   Mostly Cloudy
8:56 PM 42.1 °F 37.7 °F 30.0 °F 62% 30.08 in 10.0 mi NW 6.9 mph - N/A   Mostly Cloudy
9:56 PM 42.1 °F 37.7 °F 30.9 °F 65% 30.09 in 10.0 mi NW 6.9 mph - N/A   Overcast
10:56 PM 42.1 °F 38.4 °F 30.9 °F 65% 30.10 in 10.0 mi NW 5.8 mph - N/A   Overcast
11:56 PM 41.0 °F - 32.0 °F 70% 30.10 in 10.0 mi Calm Calm - N/A   Overcast